Location: Grisy
(48.6854°N, 2.6678°E)
Time: 14:34:33
(UTC+00:00)

Daily predictions for brighter satellites

Satellite Brightness Start Highest point End
(mag) Time Altitude Azimuth Time Altitude Azimuth Time Altitude Azimuth
CZ-4C R/B 3.4 20:30:10 10° NNE 20:34:20 78° ESE 20:38:26 10° S
Cosmos 1980 Rocket 4.0 20:29:50 10° NW 20:34:33 28° WSW 20:39:14 10° SSW
ATLAS 2AS CENTAUR R/B 3.1 20:30:02 10° NW 20:36:51 58° NE 20:43:24 10° ESE
Cosmos 2322 Rocket 2.5 20:31:19 10° NNW 20:36:57 59° ENE 20:42:33 10° SE
Meteor 1-22 Rocket 4.4 20:32:20 10° N 20:37:58 67° ENE 20:43:48 10° SSE
BREEZE-M DEB (TANK) 3.5 20:36:27 10° SW 20:39:54 54° SE 20:51:00 10° ENE
COSMOS 2406 4.0 20:35:46 10° SW 20:41:26 59° WNW 20:47:08 10° NNE
Meteor 2-10 Rocket 3.9 20:36:29 10° N 20:42:00 56° ENE 20:47:15 10° SSE
Cosmos 1674 4.1 20:39:42 10° SW 20:42:56 36° WNW 20:46:10 10° N
ARGOS Delta rocket 3.8 20:39:24 10° S 20:43:51 75° W 20:48:14 10° NNW
SL-4 R/B 2.6 20:44:59 10° W 20:48:43 55° N 20:52:44 10° ENE
Cosmos 1733 Rocket 3.8 20:44:42 10° N 20:48:51 38° ENE 20:52:58 10° SE
Cosmos 2278 4.1 20:44:01 10° NNW 20:49:40 63° WSW 20:55:17 10° SSE
Cosmos 1300 3.0 20:50:37 10° N 20:54:03 46° ENE 20:57:21 11° SSE
Ariane Rocket 3.1 20:49:19 10° SSE 20:54:22 69° ENE 20:59:27 10° N
S3M 4.1 20:47:58 10° N 20:54:23 86° E 21:00:42 10° S
Timation 1 Rocket 4.4 20:50:19 10° SSW 20:56:11 62° ESE 21:02:04 10° NE
SL-27 R/B 3.0 20:54:25 10° SSE 20:56:45 25° ESE 20:59:07 10° NE
Okean-O 4.1 20:53:27 10° SSW 20:57:28 35° W 21:01:33 10° NNW
Cosmos 1441 Rocket 4.2 20:55:31 10° NNW 20:58:56 41° W 21:02:22 10° SSW
Cosmos 1400 Rocket 2.7 20:56:39 10° S 21:00:31 78° E 21:04:22 10° NNE
Meteor 1-13 Rocket 4.5 20:55:24 10° SSW 21:01:11 78° WNW 21:06:53 10° N
Cosmos 2219 Rocket 3.1 20:56:07 10° NNW 21:01:29 41° NE 21:06:49 10° ESE
COSMOS 2428 4.4 20:58:14 10° N 21:02:52 25° NE 21:07:30 10° E
Cosmos 1356 Rocket 3.8 20:59:57 10° S 21:03:58 47° E 21:08:01 10° NNE
BREEZE-M DEB (TANK) 1.7 21:02:00 10° W 21:04:01 66° SSW 21:06:51 10° ESE
Cosmos 1908 4.5 21:01:06 10° NNW 21:04:25 35° W 21:07:43 10° SSW
Cosmos 2266 Rocket 4.1 20:59:17 10° S 21:05:38 89° E 21:12:06 10° N
USA 245 3.7 21:02:37 10° S 21:06:09 66° W 21:10:39 10° NNW
ATLAS CENTAUR R/B 1.2 21:03:13 10° SSW 21:06:33 45° ESE 21:10:00 10° NE
Cosmos 1850 Rocket 4.0 21:03:27 10° S 21:08:35 62° ESE 21:13:44 10° NNE
Cosmos 1655 Rocket 4.1 21:04:54 10° S 21:11:14 71° E 21:17:37 10° NNE
Cosmos 1869 Rocket 4.4 21:08:41 10° NNW 21:12:59 49° W 21:17:15 10° SSW
Meteor 1-4 Rocket 3.5 21:13:07 15° SE 21:14:40 23° E 21:17:07 10° NE
Cosmos 2228 Rocket 3.2 21:10:28 10° S 21:14:58 67° E 21:19:32 10° NNE
MOS 1 Rocket 3.7 21:10:34 10° S 21:15:58 82° WSW 21:21:17 10° NNW
Okean O Rocket 4.3 21:14:44 10° WSW 21:16:54 13° W 21:19:03 10° WNW
Cosmos 1953 3.6 21:15:01 10° NNE 21:18:17 26° ENE 21:20:51 14° ESE
Cosmos 1315 Rocket 4.0 21:17:28 15° SE 21:19:56 26° E 21:23:16 10° NE
Cosmos 968 Rocket 3.6 21:17:03 10° S 21:22:03 56° ESE 21:27:09 10° NNE
SPOT 3 Rocket 3.7 21:18:16 11° S 21:23:19 76° WSW 21:28:31 10° NNW
SeaSat 1 3.1 21:19:03 10° S 21:23:41 48° WSW 21:28:28 10° NW
Spot 1 4.5 21:19:31 10° NNE 21:23:58 53° ESE 21:28:26 11° S
Cosmos 2360 Rocket 2.3 21:21:02 10° NNW 21:26:44 81° WSW 21:31:30 15° SSE
Cosmos 1741 Rocket 4.0 21:23:48 10° SSW 21:29:05 85° ESE 21:34:25 10° NNE
Cosmos 1242 Rocket 4.1 21:29:30 12° E 21:29:57 13° E 21:31:16 10° ENE
BlueWalker 3 3.4 21:31:50 17° SE 21:31:50 17° SE 21:34:07 10° E
MetOp-A 4.1 21:28:25 15° SSE 21:32:45 73° ENE 21:38:00 10° N
Cosmos 1814 Rocket 4.1 21:27:44 10° NNW 21:33:04 78° ENE 21:37:16 17° SSE
Landsat 4 4.2 21:30:19 12° S 21:33:19 46° W 21:36:39 10° NNW
COSMOS 2455 4.4 21:35:30 14° SE 21:37:41 16° ESE 21:41:15 10° ENE
SL-16 R/B 3.4 21:33:20 10° NW 21:38:25 35° WSW 21:43:28 10° S
Landsat 5 3.4 21:36:34 10° NNE 21:40:35 72° ESE 21:44:10 14° S
USA 234 3.3 21:34:27 10° NE 21:41:03 87° SSE 21:47:36 10° SW
Cosmos 2333 Rocket 2.4 21:36:55 10° NNW 21:42:39 68° WSW 21:47:09 17° SSE
SL-14 R/B 3.9 21:40:04 10° SSW 21:43:46 53° WNW 21:47:31 10° N
Cosmos 1703 Rocket 4.4 21:43:33 19° SE 21:46:08 35° E 21:50:12 10° NNE
Cosmos 1862 Rocket 3.6 21:42:40 10° SSW 21:47:00 80° W 21:51:28 10° N
Cosmos 1346 Rocket 3.5 21:44:24 10° NNW 21:48:07 47° W 21:51:09 14° SSW
Okean 3 3.4 21:46:07 14° S 21:49:41 90° WNW 21:53:53 10° N
DNEPR-1 R/B 4.4 21:43:28 10° NW 21:50:19 89° SW 21:54:25 19° SE
Cosmos 1455 2.3 21:49:47 10° N 21:53:15 53° ENE 21:55:03 25° SE
Cosmos 1408 4.4 21:55:12 12° E 21:55:33 12° E 21:56:52 10° ENE
Atlas Centaur 2 4.5 21:51:49 10° SW 21:56:17 16° SSW 21:58:33 14° S
Cosmos 1833 4.2 21:51:08 10° SSW 21:56:46 88° ESE 22:02:26 10° NNE
EXPRESS MD2 2.3 21:55:23 10° W 21:57:47 62° N 21:59:46 12° ENE
CZ-4C R/B 3.4 21:58:28 15° ESE 21:59:10 15° ESE 22:02:04 10° ENE
RESURS DK-1 4.3 21:56:45 10° WNW 21:59:48 20° WSW 22:02:41 11° SSW
H-2A R/B 3.8 21:58:41 16° ESE 22:01:21 30° ENE 22:05:04 10° N
Cosmos 2237 Rocket 3.8 21:56:58 10° NNW 22:01:46 27° NE 22:06:33 10° ESE
Cosmos 1932 4.4 21:57:02 10° SSW 22:03:20 73° SE 22:09:36 10° NE
SJ 16-02 1.4 22:00:21 10° SSW 22:04:40 80° WNW 22:09:01 10° NNE
Terra 3.7 22:01:38 10° SW 22:05:23 23° W 22:09:10 10° NW
Cosmos 2322 3.9 21:59:57 10° NNW 22:05:38 68° ENE 22:09:35 20° SE
CZ-2C R/B 4.0 22:02:48 10° NNE 22:07:06 48° E 22:09:29 24° SSE
Aureole 3 4.1 22:07:01 12° SSW 22:10:36 57° WNW 22:15:32 10° N
Cosmos 2322 Rocket 3.7 22:15:59 10° NW 22:20:36 26° WSW 22:24:47 12° SSW
ARIANE 5 R/B 2.5 22:23:17 27° SSE 22:25:35 87° ENE 22:29:57 10° NNW
NOSS 5 (C) 4.2 22:23:35 10° NW 22:26:46 76° NE 22:27:59 34° SE
ATLAS 2AS CENTAUR R/B 3.4 22:21:20 10° NW 22:27:31 39° WSW 22:31:35 19° S
SL-4 R/B 2.1 22:23:49 10° WNW 22:27:47 73° NNE 22:31:56 10° ESE
Cosmos 2297 Rocket 3.4 22:27:17 20° SE 22:29:16 25° ESE 22:33:44 10° NE
Okean 1-7 3.7 22:30:05 16° SSW 22:33:22 52° WNW 22:37:36 10° N
USA 281 3.2 22:34:22 23° SSE 22:38:43 77° WSW 22:45:20 10° NNW
Cosmos 1745 Rocket 4.0 22:34:59 23° S 22:39:12 76° E 22:45:34 10° NNE
Cosmos 1908 Rocket 4.2 22:37:01 10° NNW 22:41:12 46° W 22:43:32 23° SSW
GP-B 3.2 22:37:01 10° N 22:41:24 70° W 22:43:50 26° SSW
Spot 4 4.0 22:41:21 27° SSE 22:43:53 68° ENE 22:48:41 10° N
Cosmos 1782 Rocket 3.5 22:39:49 10° N 22:44:09 82° W 22:46:09 32° S
ATLAS CENTAUR R/B 3.5 22:41:29 10° W 22:44:23 23° NW 22:47:24 10° NNE
Cosmos 2219 Rocket 3.0 22:40:11 10° NW 22:45:25 39° WSW 22:48:35 21° SSW
Nadezhda 1 Rocket 4.0 22:40:20 10° NNW 22:46:39 79° W 22:50:31 25° S
COSMOS 2428 2.7 22:42:02 10° NNW 22:47:44 76° WSW 22:50:54 27° SSE
NOSS 8 (F) 4.5 22:47:50 34° SSW 22:49:13 60° SE 22:52:21 10° NE
Meteor 2-5 Rocket 4.4 22:46:15 25° SSE 22:49:15 43° E 22:54:45 10° NNE
BREEZE-M DEB (TANK) 3.2 22:48:09 10° WNW 22:51:51 36° N 22:53:52 10° ENE
Cosmos 1953 3.8 22:50:49 10° NNW 22:54:03 26° W 22:55:58 18° SW
Cosmos 2098 Rocket 4.4 22:48:24 10° N 22:54:55 55° ENE 22:58:50 24° SE
Cosmos 1315 Rocket 4.5 22:52:43 11° SW 22:55:59 29° WNW 22:59:31 10° N
H-2A R/B 3.7 22:54:58 10° NE 22:58:00 19° E 22:59:07 17° ESE
PSLV R/B 4.1 22:55:43 10° N 22:59:41 66° WNW 23:01:43 27° SSW
Cosmos 1300 Rocket 3.6 22:57:03 10° NNW 23:01:19 66° W 23:03:09 33° SSW
Cosmos 1242 Rocket 3.7 23:00:40 20° WSW 23:01:42 26° WNW 23:04:06 10° NNW
Cosmos 304 Rocket 4.0 23:03:17 32° SSE 23:05:06 51° ESE 23:09:44 10° NNE
Cosmos 158 Rocket 4.2 23:02:34 10° NNW 23:07:47 58° WSW 23:10:13 30° S
BlueWalker 3 1.7 23:06:00 13° WSW 23:09:19 81° SSE 23:13:03 10° ENE
Cosmos 2151 Rocket 4.4 23:05:16 10° N 23:09:27 40° ENE 23:11:26 25° SE
Cosmos 2360 Rocket 4.4 23:07:04 10° WNW 23:09:47 14° W 23:12:28 10° SW
Cosmos 405 Rocket 3.2 23:07:10 10° N 23:10:51 50° ENE 23:12:07 34° SE
Okean 2 Rocket 3.9 23:11:44 10° N 23:16:01 43° ENE 23:18:04 26° SE
ALOS 2 2.5 23:14:27 36° S 23:16:14 84° WSW 23:20:40 10° NNW
Cosmos 546 4.5 23:15:56 10° WNW 23:19:48 82° SSW 23:21:59 25° ESE
Cosmos 1674 Rocket 4.4 23:20:04 29° SE 23:21:32 38° E 23:25:35 10° NNE
Cosmos 1378 Rocket 4.1 23:20:47 32° SE 23:22:16 46° E 23:26:28 10° NNE
COSMOS 2455 2.8 23:18:35 21° SSW 23:22:42 84° ESE 23:28:46 10° NE
USA 234 4.2 23:17:33 10° ENE 23:23:48 50° NNW 23:30:03 10° W
NOSS 0 Rocket 4.1 23:20:23 10° NW 23:26:30 59° WSW 23:29:40 29° S
CENTAUR R/B 3.4 23:24:42 24° SE 23:26:35 29° ESE 23:32:10 10° NE
Cosmos 1408 3.4 23:27:13 28° WSW 23:27:57 32° WNW 23:30:43 10° N
Cosmos 773 Rocket 4.0 23:24:35 10° NNW 23:29:43 69° WSW 23:32:01 33° S
Cosmos 1703 3.5 23:34:51 37° SW 23:36:03 57° WNW 23:39:42 10° N
H-2A R/B 3.7 23:34:40 25° SW 23:36:13 32° W 23:40:04 10° NNW
Cosmos 2221 Rocket 4.0 23:34:52 33° SSE 23:36:28 50° E 23:40:47 10° NNE
Cosmos 1892 2.9 23:37:30 41° SE 23:38:09 47° E 23:41:33 10° NNE
Cosmos 1709 Rocket 4.4 23:34:37 22° SSW 23:38:46 61° WNW 23:45:05 10° N
SL-16 R/B 3.2 23:34:07 10° NNW 23:39:33 42° NE 23:44:44 11° ESE
Cosmos 1174 4.0 23:34:45 10° NW 23:39:49 85° NE 23:41:41 33° SE
Sich 1 Rocket 3.5 23:37:15 10° N 23:41:40 77° ENE 23:43:22 37° SSE
Cosmos 2242 Rocket 4.5 23:39:46 23° SW 23:42:11 43° WNW 23:46:34 10° N
SJ 16-02 4.1 23:41:58 10° WNW 23:43:47 12° NW 23:45:37 10° NNW
Cosmos 1777 Rocket 4.0 23:43:34 31° SSW 23:46:12 85° ESE 23:51:31 10° NNE
Cosmos 2237 Rocket 2.2 23:40:41 10° NNW 23:46:18 66° WSW 23:48:59 31° S
Cosmos 1503 Rocket 4.0 23:43:28 28° SSW 23:46:23 82° WNW 23:51:43 10° NNE
CZ-4C R/B 1.9 23:43:30 23° SW 23:46:24 82° NW 23:52:13 10° NE
BREEZE-M DEB (TANK) 2.8 23:39:05 10° W 23:48:32 89° S 23:51:34 10° ESE
Cosmos 2227 Rocket 2.4 23:50:16 31° S 23:52:49 56° ESE 23:58:21 10° NE
GEOS 3 Rocket 4.1 23:50:10 10° NE 23:55:03 42° ESE 23:56:49 31° SSE
